[[{"header":{"parameterUnit":"m.s-1","parameterCategory":1,"la1":30.2992,"la2":30.254,"lo1":-89.0895,"lo2":-89.0443,"dy":0.0025,"dx":0.0025,"nx":19,"ny":19,"refTime":"2026-05-18T03:00:00:Z","depth":0,"parameterNumber":2,"parameterNumberName":"U-component_of_WINDS"},"data":[0,0,0,-4.8821,-4.8824,-4.899,-4.8991,-4.921,-4.9212,0,0,0,0,0,0,0,0,0,0,0,-4.8777,-4.8779,-4.882,-4.8825,-4.899,-4.8991,-4.921,-4.9212,0,0,0,0,0,0,0,0,0,0,0,-4.8777,-4.8779,-4.8781,-4.8825,-4.899,-4.8991,-4.9209,-4.9081,0,0,0,0,0,0,0,0,0,0,-4.8919,-4.8885,-4.8778,-4.8781,-4.8826,-4.899,-4.8991,-4.9075,-4.9089,-4.9138,0,-4.9185,0,-4.9202,-4.9227,-4.9228,0,0,0,-4.882,-4.8873,-4.8913,-4.8781,-4.8828,-4.899,-4.8914,-4.9083,-4.9099,-4.9157,-4.9188,-4.9196,-4.9206,-4.9229,-4.923,-4.9532,-4.9534,0,0,-4.8811,-4.881,-4.8902,-4.8923,-4.89,-4.8909,-4.892,-4.9092,-4.9125,-4.9189,-4.9201,-4.921,-4.923,-4.9232,-4.9531,-4.9533,0,0,0,-4.8788,-4.8804,-4.8839,-4.8915,-4.8944,-4.8914,-4.8926,-4.9118,-4.9129,-4.9203,-4.9212,-4.9232,-4.9234,-4.9529,-4.9532,-4.9611,0,0,0,-4.8782,-4.879,-4.8835,-4.8836,-4.8941,-4.9033,-4.8948,-4.9117,-4.9137,-4.9211,-4.9232,-4.9237,-4.9527,-4.953,-4.9605,-4.9648,0,0,0,-4.8764,-4.8788,-4.8814,-4.8836,-4.8908,-4.9031,-4.9052,-4.9121,-4.9143,-4.9228,-4.9237,-4.9526,-4.953,-4.96,-4.9639,-4.9726,0,0,0,-4.8745,-4.8883,-4.8816,-4.8973,-4.8906,-4.908,-4.9051,-4.918,-4.9263,-4.9233,-4.9528,-4.9531,-4.9598,-4.9634,-4.972,-4.9798,-4.9831,0,0,-4.8918,-4.8904,-4.8996,-4.8941,-4.9126,-4.9054,-4.9251,-4.9327,-4.9336,-4.9466,-4.9473,-4.9607,-4.9639,-4.9725,-5.0018,-5.0044,0,0,0,-4.9051,-4.9117,-4.9166,-4.9246,-4.9308,-4.9365,-4.9411,-4.944,-4.955,-4.9403,-4.9663,-4.9682,-4.9732,-4.9769,-4.9791,-4.9834,-4.9549,-4.9549,-4.9548,-4.9293,-4.9297,-4.945,-4.9474,-4.9551,-4.9598,-4.9661,-4.9706,-4.9688,-4.9749,-4.9787,-4.9965,-5.0008,-5.0025,-5.0069,-4.983,-4.9831,-4.9831,-4.9831,-4.9545,-4.9638,-4.9611,-4.9749,-4.9752,-4.9867,-4.9917,-4.99,-5.0006,-4.9937,-4.9981,-4.9903,-5.0053,-5.0092,-4.9837,-4.9836,-4.9835,-4.9835,-4.9834,-4.9702,-4.9747,-4.9781,-4.9896,-4.9984,-5.0003,-5.0107,-5.0106,-5.0106,-5.0151,-5.0189,-5.0188,-5.0185,-5.017,-5.017,-5.0171,-5.0172,-5.0172,-5.0172,-4.9852,-4.9886,-4.9974,-5.0052,-5.0103,-5.0169,-5.0218,-5.0267,-5.0321,-5.0312,-5.0313,-5.0286,-5.0068,-5.0012,-5.0182,-5.018,-5.0179,-5.0178,-5.0178,-5.0102,-5.0045,-5.0181,-5.0232,-5.0322,-5.0409,-5.0408,-5.0508,-5.0549,-5.0599,-5.0564,-5.0404,-5.0388,-5.0371,-5.0324,-5.0564,-5.0564,-5.0564,-5.0564,-5.0233,-5.0226,-5.0364,-5.0445,-5.0524,-5.0536,-5.0688,-5.0727,-5.0758,-5.0783,-5.0748,-5.0687,-5.0669,-5.0664,-5.064,-5.0596,-5.0901,-5.0901,-5.0901,-5.0386,-5.0386,-5.0516,-5.0546,-5.0617,-5.0677,-5.0819,-5.0912,-5.0935,-5.0915,-5.0802,-5.0787,-5.0689,-5.0657,-5.0631,-5.0594,-5.0514,0,0]},{"header":{"parameterUnit":"m.s-1","parameterCategory":1,"la1":30.2992,"la2":30.254,"lo1":-89.0895,"lo2":-89.0443,"dy":0.0025,"dx":0.0025,"nx":19,"ny":19,"refTime":"2026-05-18T03:00:00:Z","depth":0,"parameterNumber":3,"parameterNumberName":"V-component_of_WINDS"},"data":[0,0,0,4.1856,4.1857,4.1899,4.1899,4.1968,4.1969,0,0,0,0,0,0,0,0,0,0,0,4.1855,4.1856,4.1856,4.1858,4.1899,4.1899,4.1968,4.1969,0,0,0,0,0,0,0,0,0,0,0,4.1855,4.1856,4.1857,4.1858,4.1899,4.1899,4.1968,4.193,0,0,0,0,0,0,0,0,0,0,4.1888,4.1898,4.1856,4.1857,4.1858,4.1899,4.1899,4.1928,4.1933,4.1957,0,4.1982,0,4.1977,4.1975,4.1975,0,0,0,4.1849,4.1895,4.1896,4.1857,4.1859,4.1899,4.1878,4.1931,4.1936,4.1963,4.1983,4.1985,4.1978,4.1975,4.1976,4.2146,4.2147,0,0,4.1847,4.1869,4.1892,4.1899,4.1895,4.1876,4.1879,4.1933,4.1957,4.1984,4.1987,4.1979,4.1976,4.1976,4.2145,4.2147,0,0,0,4.1846,4.1868,4.1867,4.1897,4.1903,4.1878,4.1881,4.1954,4.1952,4.1987,4.198,4.1976,4.1977,4.2144,4.2146,4.2226,0,0,0,4.1844,4.1867,4.1866,4.188,4.1903,4.1929,4.1901,4.1948,4.1954,4.198,4.1976,4.1978,4.2142,4.2145,4.2221,4.2261,0,0,0,4.1849,4.1867,4.1877,4.1881,4.19,4.1928,4.1929,4.1949,4.195,4.1975,4.1978,4.2141,4.2144,4.2217,4.2253,4.2312,0,0,0,4.186,4.1949,4.1879,4.1975,4.19,4.1978,4.1928,4.1985,4.2017,4.1977,4.2143,4.2145,4.2215,4.2248,4.2307,4.2364,4.2391,0,0,4.1984,4.1965,4.2019,4.1958,4.2055,4.197,4.2078,4.2086,4.2068,4.2121,4.2125,4.2223,4.2253,4.2311,4.2531,4.2552,0,0,0,4.2066,4.2106,4.2126,4.2157,4.2166,4.2176,4.2164,4.2167,4.2211,4.21,4.226,4.2276,4.231,4.2336,4.2354,4.238,4.2159,4.2158,4.2158,4.2273,4.2245,4.2334,4.2311,4.2342,4.2329,4.2351,4.2352,4.2315,4.2354,4.2369,4.2506,4.2538,4.2552,4.258,4.2398,4.2398,4.2398,4.2399,4.2452,4.2503,4.2452,4.2519,4.2489,4.2545,4.2536,4.2508,4.2555,4.2493,4.252,4.2454,4.2576,4.2599,4.2404,4.2403,4.2403,4.2402,4.2402,4.2584,4.2603,4.2605,4.2647,4.2682,4.2656,4.2704,4.2674,4.2647,4.2675,4.2687,4.2686,4.268,4.2683,4.2684,4.2684,4.2684,4.2685,4.2685,4.2719,4.2719,4.2763,4.2779,4.2795,4.2812,4.28,4.2815,4.2823,4.2798,4.2798,4.2757,4.2593,4.2552,4.2692,4.2691,4.269,4.2689,4.2689,4.291,4.2862,4.293,4.2946,4.2962,4.2998,4.2961,4.2993,4.3001,4.3025,4.2978,4.2862,4.2839,4.2825,4.279,4.2984,4.2984,4.2984,4.2984,4.3021,4.3007,4.3069,4.3096,4.312,4.3093,4.3169,4.3161,4.3144,4.3147,4.3115,4.3068,4.3054,4.3039,4.302,4.2988,4.3227,4.3228,4.3228,4.3136,4.3122,4.3194,4.3177,4.3188,4.3197,4.3268,4.3301,4.3272,4.3237,4.3149,4.3138,4.3061,4.3038,4.3,4.2971,4.2911,0,0]}]]